Location: Brantley
(31.5822°N, 86.2569°W)
Time: 12:46:10
(UTC+00:00)

Vanguard 2 - Pass Details

Date: 23 February 2026
Orbit: 553 x 2896 km, 32.9° (Epoch: 17 March)

Event Time Altitude Azimuth Distance (km) Brightness Sun altitude
Rises 11:22:52 0° 268° (W) 4,414 - -12.6°
Reaches altitude 10° 11:26:27 10° 269° (W) 3,066 - -11.8°
Exits shadow 11:27:37 14° 270° (W) 2,626 9.6 -11.6°
Maximum altitude 11:33:27 78° 356° (N) 824 7.6 -10.3°
Drops below altitude 10° 11:38:01 10° 83° (E) 2,035 11.2 -9.4°
Sets 11:39:59 0° 85° (E) 2,831 12.5 -9.0°
